Regional Weather Roundup
Issued by NWS Newport/Morehead, NC

Home | Current Version | Previous Version | Text Only | Print | Product List | Glossary On
Versions: 1 2 3 4 5 6 7 8 9 10 11 12 13 14 15 16 17 18 19 20 21 22 23 24 25 26 27 28 29 30 31 32 33 34 35 36 37 38 39 40 41 42 43 44 45 46 47 48 49 50
000
ASUS42 KMHX 271625
RWRMHX
WEATHER ROUNDUP FOR EASTERN NORTH CAROLINA
NATIONAL WEATHER SERVICE NEWPORT/MOREHEAD CITY NC
1200 PM EDT MON MAR 27 2017

NOTE: "FAIR" INDICATES FEW OR NO CLOUDS BELOW 12,000 FEET
WITH NO SIGNIFICANT WEATHER AND/OR OBSTRUCTIONS TO VISIBILITY

NCZ015>017-031-032-045>047-102-103-271700-
NORTH COAST

CITY           SKY/WX    TMP DP  RH WIND       PRES   REMARKS
EDENTON        PTSUNNY   74  56  54 SW10      30.15F
ELIZABETH CITY MOSUNNY   74  54  49 SW10G21   30.14F
KITTY HAWK     NOT AVBL
MANTEO         CLOUDY    65  53  65 S7        30.16F

$$

NCZ045>047-081-094-103-104-271700-
CENTRAL COAST

CITY           SKY/WX    TMP DP  RH WIND       PRES   REMARKS
FRISCO         MOSUNNY   75  53  46 SW7       30.17S

$$

NCZ095-097-098-100-101-271700-
SOUTHERN COAST

CITY           SKY/WX    TMP DP  RH WIND       PRES   REMARKS
BEAUFORT       SUNNY     75  55  49 SW9       30.17S
CEDAR ISLAND   NOT AVBL
JACKSONVILLE   PTSUNNY   74  53  48 S7        30.15F
PINEY ISLAND   PTSUNNY  N/A N/A N/A W7        30.16F
WILMINGTON     MOSUNNY   74  54  49 S6        30.16F


$$

NCZ011>013-027>030-043-044-078>080-089-090>093-098-271700-
COASTAL PLAIN

CITY           SKY/WX    TMP DP  RH WIND       PRES   REMARKS
AHOSKIE          N/A     70  58  66 CALM      30.14F
CLINTON        MOSUNNY   72  58  61 CALM      30.15F
ELIZABETHTOWN  MOSUNNY   74  56  52 S7        30.15F
GOLDSBORO      CLOUDY    71  58  64 W10       30.14F
GREENVILLE     PTSUNNY   75  55  50 SW6       30.16S
HAVELOCK       MOSUNNY   76  53  44 SW13      30.16F
KENANSVILLE    MOSUNNY   75  55  50 S7        30.15F
KINSTON        CLOUDY    75  54  46 SW8       30.16F
NEW BERN       PTSUNNY   74  54  49 W8        30.16F
RICHLANDS      CLOUDY    75  55  49 W6        30.16F
ROCKY MOUNT    LGT RAIN  66  59  78 S7        30.15F
WASHINGTON     MOSUNNY   72  55  55 W7        30.15F
WHITEVILLE     MOSUNNY   75  54  48 S9        30.14F

$$

AMZ130-135-150-152-154-156-158-170-250-252-270-ANZ085-086-088-633-658-670-271700-
MARINE OBSERVATIONS

STATION/POSITION TIME  TEMP    WIND        PRES    WAVE   SWELL
                       AIR SEA DIR/SP/G            HT/PER HT/PER
                 (UTC) (F)     (DEG/KT/KT) (MB)    (FT/S) (FT/S)
CHESAPEAKE LIGHT NOT AVBL
64 E VA BEACH    1550   55 50  200/  6/  8 1021.0    4/ 9   3/ 9
DUCK             1600   69 49  200/  8/ 11 1020.3
2 E DUCK         1600      54                N/A     3/ 7
OREGON INLET     1600   67 56  170/  8/  9 1021.1
13E OREGON INLT  1548      53                N/A     4/ 8   3/ 8
HATTERAS CG      1600   71 60  230/  9/ 13 1021.4
DIAMOND BUOY     1550   71 76  180/  4/  6 1021.7    3/ 9   3/ 9
CAPE LOOKOUT     1600   72     300/  4/  6 1021.4
BEAUFORT LAB     1600   70 58  180/  7/  9 1020.7
30 SE NEW RVR IN 1508   67     350/  2/  6 1021.9
30 SE NEW RVR IN 1613      66                N/A     3/10   2/11
27 SE WRIGHTSVLE 1608   66 64  320/  2/  6 1021.9
5 SE WRIGHTSVLE  1608   66 60  130/  2/  6 1021.4
225 S CAPE HAT   1550   69 72   80/ 14/ 16 1021.4    6/10   5/10
41 SE CHARLESTON 1550   70 73  300/  6/  8 1021.3    4/10   3/10

$$




USA.gov is the U.S. government's official web portal to all federal, state and local government web resources and services.